Temp
6 6 6 6 6 6 6 6 6 6 6 6 6 6 6 6 6 5 5 5 5 5 4 4 4 4 4 4 4 4 4 4 4 4 4 4 4 4 4 4 4 4
6 6 6 6 6 6 6 6 6 6 6 6 6 6 6 6 5 5 5 5 4 4 4 4 4 4 4 4 4 4 4 4 4 4 4 4 4 4 4 4 4 4
6 6 6 6 6 6 6 6 6 6 6 6 6 6 6 5 5 5 5 4 4 4 4 4 4 4 4 4 4 4 4 4 4 4 4 4 4 4 4 4 3 3
6 6 6 6 6 6 6 6 6 6 6 6 6 6 5 5 5 4 4 4 4 4 4 4 4 4 4 4 4 4 4 4 4 4 4 3 3 3 3 3 3 3
6 6 6 6 6 6 6 6 6 6 6 6 6 5 5 5 4 4 4 4 4 4 4 4 4 4 4 4 4 4 4 3 3 3 3 3 3 3 3 3 2 2
6 6 6 6 6 6 6 6 6 6 6 6 6 5 5 4 4 4 4 4 4 4 4 4 3 3 3 3 3 3 3 3 3 3 2 2 2 2 2 2 2 2
6 6 6 6 6 6 6 6 6 6 6 6 5 5 4 4 4 4 4 4 3 3 3 3 3 3 3 3 3 3 3 3 2 2 2 2 2 2 2 1 1 1
5 6 6 6 6 6 6 6 6 6 6 5 5 4 4 4 4 4 3 3 3 3 3 3 3 3 3 3 3 2 2 2 2 2 2 2 1 1 1 1 1 1
5 5 6 6 6 6 6 6 6 6 5 5 4 4 4 4 3 3 3 3 3 3 3 3 3 3 2 2 2 2 2 2 2 1 1 1 1 1 1 1 0 0
5 5 6 6 6 6 6 6 6 5 5 4 4 4 4 3 3 3 3 3 3 3 3 3 2 2 2 2 2 2 2 1 1 1 1 1 0 0 0 0 0 0
5 5 6 6 6 6 6 6 5 5 4 4 4 3 3 3 3 3 3 3 3 2 2 2 2 2 2 2 2 2 1 1 1 1 1 0 0 0 -0 -0 -0 -0
5 5 6 6 6 6 5 5 5 4 4 4 3 3 3 3 3 3 2 2 2 2 2 2 2 2 1 1 1 1 1 1 0 1 0 0 0 -0 -0 -0 -1 -1
5 5 6 6 6 5 5 5 4 4 3 3 3 3 3 3 2 2 2 2 2 2 2 1 1 1 1 1 1 1 0 0 0 0 0 0 0 -0 -1 -1 -1 -1
5 5 6 6 5 5 4 4 4 3 3 3 3 3 2 2 2 2 2 2 1 1 1 1 1 1 1 1 0 0 0 0 0 0 0 -0 -0 -0 -1 -1 -1 -2
5 5 5 5 5 4 4 4 3 3 3 3 3 2 2 2 2 2 1 1 1 1 1 1 1 1 0 0 0 -0 -0 -0 -0 -0 -0 -0 -1 -1 -1 -1 -2 -2
5 5 5 5 4 4 4 4 3 3 3 3 2 2 2 2 2 1 1 1 1 1 1 1 0 0 0 -0 -0 -0 -0 -0 -0 -0 -0 -1 -1 -1 -1 -2 -2 -2
5 5 4 4 4 4 4 3 3 3 3 2 2 2 2 2 1 1 1 1 1 1 1 0 0 -0 -0 -0 -0 -0 -0 -0 -0 -0 -1 -1 -1 -1 -1 -2 -2 -2
4 4 4 4 4 3 3 3 3 2 2 2 2 2 1 1 1 1 1 1 1 0 0 -0 -0 -0 -1 -1 -0 -0 -0 -0 -1 -1 -1 -1 -1 -1 -2 -2 -2 -2
4 4 3 3 3 3 3 3 2 2 2 2 1 1 1 1 1 1 1 0 0 -0 -0 -0 -1 -1 -1 -1 -0 -0 -0 -1 -1 -1 -1 -2 -2 -2 -2 -2 -2 -2
3 3 3 3 3 3 3 3 2 2 1 1 1 1 1 1 1 0 0 0 -0 -0 -1 -1 -1 -1 -1 -1 -1 -1 -1 -1 -1 -1 -1 -2 -2 -2 -2 -2 -2 -3
3 3 3 3 3 3 3 2 2 1 1 1 1 1 1 1 0 0 0 -0 -0 -1 -1 -1 -1 -1 -1 -1 -1 -1 -1 -1 -2 -2 -2 -2 -2 -2 -2 -2 -2 -3
2 2 2 2 2 2 2 2 1 1 1 1 1 1 1 0 0 -0 -0 -0 -1 -1 -1 -1 -1 -1 -1 -1 -1 -1 -1 -2 -2 -2 -2 -2 -2 -2 -2 -3 -3 -3
2 2 2 2 2 2 2 1 1 1 1 1 1 1 0 0 -0 -0 -0 -1 -1 -1 -1 -1 -1 -1 -1 -1 -2 -2 -2 -2 -2 -2 -2 -2 -2 -3 -3 -3 -3 -3
2 2 2 2 2 2 1 1 1 1 1 1 1 0 0 -0 -0 -0 -1 -1 -1 -1 -1 -1 -1 -1 -2 -2 -2 -2 -2 -2 -2 -2 -2 -3 -3 -3 -3 -3 -3 -3
1 2 2 2 2 1 1 1 1 1 1 0 0 0 -0 -0 -1 -1 -1 -1 -1 -1 -1 -1 -1 -2 -2 -2 -2 -2 -2 -2 -2 -2 -3 -3 -3 -3 -3 -3 -3 -4
1 1 2 2 1 1 1 1 0 0 0 0 -0 -0 -0 -0 -1 -1 -1 -1 -1 -1 -1 -2 -2 -2 -2 -2 -2 -2 -2 -3 -3 -3 -3 -3 -3 -3 -3 -4 -4 -4
Height
3157 3158 3159 3160 3161 3161 3161 3161 3161 3161 3161 3161 3161 3161 3160 3159 3159 3158 3157 3156 3155 3155 3154 3153 3153 3153 3152 3152 3151 3151 3150 3149 3148 3147 3146 3145 3143 3142 3140 3138 3136 3134
3156 3157 3158 3159 3159 3159 3160 3159 3159 3159 3159 3159 3159 3159 3158 3157 3157 3156 3155 3154 3154 3153 3152 3152 3152 3151 3151 3150 3149 3148 3147 3147 3146 3145 3144 3142 3141 3139 3137 3135 3133 3131
3155 3155 3156 3157 3157 3158 3158 3157 3157 3157 3157 3157 3157 3157 3156 3155 3155 3154 3153 3153 3152 3152 3151 3151 3150 3150 3149 3148 3147 3146 3145 3145 3144 3143 3141 3140 3138 3136 3134 3132 3130 3129
3153 3154 3155 3155 3156 3156 3156 3156 3156 3156 3156 3155 3155 3154 3154 3154 3153 3152 3152 3151 3151 3150 3150 3149 3149 3148 3147 3146 3145 3144 3144 3143 3142 3140 3139 3137 3135 3133 3131 3130 3128 3126
3152 3152 3153 3154 3154 3154 3154 3155 3155 3154 3154 3153 3153 3153 3152 3152 3151 3151 3150 3150 3149 3149 3148 3147 3147 3146 3145 3144 3144 3143 3142 3141 3140 3138 3137 3135 3133 3131 3129 3128 3126 3124
3151 3151 3152 3152 3153 3153 3153 3153 3153 3153 3152 3152 3151 3151 3150 3150 3150 3149 3149 3148 3147 3147 3146 3146 3145 3144 3143 3143 3142 3141 3140 3139 3138 3136 3135 3133 3131 3129 3127 3126 3124 3122
3150 3150 3151 3151 3151 3151 3151 3151 3151 3150 3150 3150 3149 3149 3148 3148 3148 3147 3147 3146 3146 3145 3145 3144 3144 3143 3142 3141 3141 3140 3138 3137 3136 3134 3132 3130 3129 3127 3125 3123 3121 3120
3148 3149 3149 3149 3149 3149 3149 3149 3148 3148 3148 3148 3147 3147 3146 3146 3146 3146 3145 3145 3144 3144 3143 3143 3142 3141 3141 3140 3139 3138 3136 3135 3134 3132 3130 3128 3127 3125 3123 3121 3120 3118
3147 3147 3147 3147 3147 3147 3147 3147 3146 3146 3146 3146 3146 3145 3145 3145 3144 3144 3144 3143 3143 3142 3142 3141 3141 3140 3139 3138 3137 3136 3134 3133 3132 3130 3128 3127 3126 3124 3122 3120 3118 3116
3145 3146 3146 3146 3146 3145 3145 3145 3144 3145 3145 3144 3144 3143 3143 3143 3143 3142 3142 3142 3141 3141 3140 3140 3139 3138 3137 3136 3135 3134 3132 3131 3130 3128 3127 3126 3125 3123 3121 3119 3116 3114
3144 3144 3144 3144 3144 3143 3143 3143 3143 3143 3143 3142 3142 3141 3141 3141 3141 3141 3141 3140 3140 3139 3139 3138 3137 3137 3135 3134 3133 3132 3131 3130 3129 3128 3127 3125 3124 3122 3119 3117 3115 3112
3142 3142 3142 3142 3142 3141 3141 3140 3141 3141 3140 3140 3140 3140 3140 3140 3139 3139 3139 3139 3138 3138 3137 3136 3136 3135 3134 3133 3132 3130 3130 3129 3128 3126 3125 3124 3122 3120 3117 3115 3112 3110
3140 3140 3140 3140 3139 3139 3138 3138 3138 3138 3138 3138 3138 3138 3138 3138 3138 3138 3137 3137 3137 3136 3135 3135 3134 3133 3132 3131 3130 3130 3129 3128 3127 3125 3123 3122 3119 3117 3115 3113 3111 3108
3137 3137 3137 3137 3136 3136 3136 3136 3136 3137 3136 3136 3136 3136 3136 3136 3136 3136 3136 3135 3135 3134 3134 3133 3133 3132 3131 3130 3130 3129 3128 3127 3125 3123 3121 3119 3117 3115 3113 3111 3109 3107
3134 3134 3134 3134 3134 3134 3134 3134 3134 3135 3135 3134 3134 3134 3134 3134 3134 3134 3134 3134 3133 3133 3133 3132 3132 3131 3130 3129 3129 3128 3127 3125 3124 3121 3119 3117 3115 3114 3112 3110 3108 3105
3131 3132 3132 3132 3132 3132 3132 3132 3133 3133 3132 3132 3132 3133 3133 3133 3133 3133 3133 3132 3132 3132 3131 3131 3131 3130 3129 3128 3127 3127 3125 3124 3122 3120 3118 3116 3114 3112 3110 3108 3106 3104
3129 3129 3129 3130 3130 3130 3130 3131 3131 3131 3130 3130 3131 3131 3131 3132 3132 3131 3131 3131 3131 3131 3130 3130 3129 3129 3128 3127 3126 3125 3124 3123 3121 3119 3117 3115 3113 3111 3109 3107 3105 3103
3127 3127 3127 3128 3128 3128 3129 3129 3129 3129 3129 3129 3130 3130 3130 3130 3130 3130 3130 3130 3130 3130 3129 3129 3128 3127 3127 3126 3125 3124 3123 3121 3119 3118 3116 3114 3112 3110 3108 3106 3104 3102
3124 3124 3125 3126 3126 3126 3127 3127 3127 3128 3128 3128 3129 3129 3129 3129 3128 3129 3129 3129 3129 3128 3128 3128 3127 3127 3126 3125 3124 3122 3121 3120 3118 3116 3114 3113 3110 3109 3107 3105 3103 3101
3121 3122 3123 3124 3124 3124 3125 3125 3126 3126 3126 3127 3127 3127 3127 3127 3127 3128 3128 3128 3128 3128 3127 3127 3126 3125 3125 3124 3122 3121 3120 3119 3117 3115 3113 3112 3110 3108 3106 3104 3102 3100
3119 3120 3121 3122 3122 3123 3123 3124 3124 3125 3125 3125 3125 3126 3126 3126 3126 3127 3127 3127 3127 3127 3126 3126 3125 3124 3123 3122 3121 3120 3119 3117 3116 3114 3112 3111 3109 3107 3105 3103 3101 3099
3117 3118 3119 3120 3121 3121 3121 3122 3123 3123 3124 3124 3124 3124 3125 3125 3126 3126 3126 3126 3126 3125 3125 3124 3124 3123 3122 3121 3120 3118 3117 3116 3115 3113 3112 3110 3108 3107 3105 3103 3101 3099
3115 3117 3118 3118 3119 3119 3120 3120 3121 3122 3122 3123 3123 3123 3124 3124 3125 3125 3125 3125 3124 3124 3124 3123 3122 3122 3121 3120 3118 3117 3116 3115 3114 3112 3111 3110 3108 3106 3104 3102 3100 3098
3114 3115 3116 3116 3117 3118 3118 3119 3119 3120 3121 3122 3122 3122 3123 3123 3124 3124 3124 3124 3123 3123 3123 3122 3121 3121 3120 3119 3118 3116 3115 3114 3113 3112 3110 3109 3107 3106 3104 3102 3099 3097
3112 3113 3114 3115 3115 3116 3117 3117 3118 3119 3120 3121 3121 3122 3122 3123 3123 3123 3123 3122 3122 3122 3121 3121 3120 3120 3119 3118 3117 3116 3114 3113 3112 3111 3110 3108 3107 3105 3103 3101 3099 3097
3110 3111 3112 3113 3114 3115 3115 3116 3117 3118 3119 3119 3120 3121 3121 3122 3122 3122 3122 3122 3121 3121 3120 3120 3119 3119 3118 3117 3116 3115 3114 3113 3112 3110 3109 3108 3106 3104 3102 3100 3098 3096
Wind_Speed
13 12 12 11 10 10 10 11 12 14 16 16 16 15 15 15 15 15 15 15 15 16 16 16 16 16 16 17 17 17 18 19 19 20 20 21 21 21 21 22 24 25
13 12 11 10 11 12 13 13 14 15 16 16 15 15 15 15 15 15 15 15 15 15 16 16 16 16 17 17 17 18 19 19 20 20 20 20 20 21 21 22 23 24
13 11 11 11 12 14 15 15 16 16 16 16 15 15 15 15 14 14 14 14 15 15 16 16 16 16 17 17 18 18 19 19 19 20 20 19 19 20 20 21 22 23
12 12 12 13 14 15 16 16 17 16 16 16 16 15 15 14 13 13 14 14 14 15 15 15 16 16 17 18 18 19 19 19 18 18 18 18 18 19 20 21 21 21
13 13 13 15 16 17 17 17 17 16 16 16 15 14 14 13 12 13 13 13 14 14 15 15 16 16 17 18 18 18 18 17 17 16 16 16 17 18 19 20 20 21
13 14 14 15 16 16 17 16 16 15 15 14 14 13 12 11 11 12 12 13 13 14 14 15 16 16 17 18 17 17 16 15 15 15 15 15 16 17 19 20 21 22
13 13 13 14 14 15 15 15 15 14 13 13 12 12 11 11 11 11 12 12 13 14 15 15 16 16 16 16 15 15 14 14 14 13 14 15 16 18 19 21 22 23
11 10 10 10 12 13 14 14 14 13 13 12 11 10 10 10 11 11 11 12 13 14 14 15 15 15 14 13 13 13 13 13 12 13 14 16 17 18 20 21 22 23
11 9 8 9 10 12 13 14 14 13 12 11 9 9 10 10 10 10 11 12 13 13 14 14 13 12 11 11 11 12 12 12 12 13 15 16 17 18 20 21 22 23
13 11 10 11 12 13 13 14 14 13 11 9 8 9 9 9 9 10 11 12 12 12 12 11 10 9 10 10 11 11 11 12 12 13 15 16 17 18 19 21 22 23
14 13 12 13 14 14 14 14 14 11 9 8 8 8 8 9 9 10 10 11 11 10 9 8 8 9 10 10 10 11 11 12 13 14 15 16 17 18 19 21 22 23
15 14 13 14 14 14 14 14 11 8 7 7 8 7 8 9 9 9 9 9 8 7 7 8 9 9 9 9 10 10 11 12 13 15 16 17 18 19 20 21 23 24
15 14 13 14 14 14 14 11 9 6 5 7 8 8 8 8 8 8 8 7 6 6 8 8 9 8 9 9 10 11 12 13 14 16 17 18 19 20 21 22 23 24
13 13 13 14 14 13 12 9 7 5 5 8 9 8 7 7 7 6 6 6 7 8 8 8 7 8 8 9 10 11 12 13 15 16 18 19 20 21 21 22 22 24
12 12 12 13 13 12 10 8 6 5 6 8 8 7 6 6 6 6 6 8 8 7 7 6 7 7 8 9 10 12 12 13 15 17 19 20 20 21 21 22 22 24
12 11 11 12 12 11 9 7 6 6 7 8 6 6 6 6 6 8 8 8 6 6 6 6 7 8 9 10 11 12 13 14 15 17 19 19 19 20 21 22 23 24
11 11 11 12 12 10 8 7 6 6 7 7 6 6 7 7 8 9 7 6 5 5 5 6 7 8 9 10 11 12 13 14 15 16 17 18 19 20 21 22 23 24
11 11 12 12 11 9 7 6 6 6 7 6 6 8 9 9 8 6 5 5 4 5 6 7 8 8 9 10 11 12 13 14 15 16 16 17 19 20 21 22 23 24
11 12 12 12 10 8 7 6 6 6 7 8 8 9 9 8 6 6 5 4 4 5 6 7 8 9 9 11 11 13 13 14 14 15 16 17 19 20 21 22 23 24
12 12 12 10 9 8 7 7 7 8 9 9 9 9 8 7 7 5 4 4 4 5 6 7 8 9 10 11 12 12 13 13 14 15 16 17 18 20 21 22 23 23
12 12 11 9 8 8 8 8 8 9 10 10 9 9 9 8 6 5 4 4 4 5 6 7 8 9 10 11 12 12 13 13 14 15 16 17 18 19 20 21 22 23
12 11 10 9 9 9 9 9 10 10 10 10 10 10 9 7 6 5 4 4 5 5 7 8 8 9 10 11 11 12 13 13 14 14 15 16 17 19 20 21 21 22
12 11 10 9 9 9 10 10 11 11 11 12 12 10 8 7 6 4 4 4 5 6 7 8 8 9 9 10 10 11 12 13 14 14 15 16 17 18 19 20 21 22
12 11 10 9 10 10 11 12 12 12 13 13 12 10 9 7 5 4 4 4 5 6 7 7 8 8 8 9 10 11 12 13 14 14 14 15 17 18 18 20 21 22
12 11 10 10 11 12 13 14 14 14 14 13 12 10 8 7 5 4 4 4 5 6 7 7 7 8 8 8 9 10 11 12 13 14 15 16 16 17 18 19 21 22
12 11 10 11 13 14 15 16 16 16 14 13 12 10 8 6 5 4 4 4 5 5 6 6 6 6 7 7 8 10 10 11 12 13 14 15 16 17 18 19 20 22
Wind_Direction
214 215 219 226 232 242 252 259 265 268 273 279 283 287 287 288 291 294 296 299 299 298 296 296 295 292 290 289 289 290 292 294 297 298 299 300 301 302 303 303 305 306
219 222 229 240 248 256 261 262 264 267 273 279 281 282 284 287 291 294 296 298 297 296 295 293 292 291 290 290 292 293 294 296 297 298 297 298 299 300 301 303 305 306
224 232 243 254 258 260 261 261 263 268 273 277 279 281 284 288 291 292 293 293 292 290 289 289 289 290 290 292 293 294 295 296 295 295 294 296 298 300 301 303 305 306
231 242 254 261 262 261 261 261 264 268 272 275 279 282 284 286 287 287 287 286 286 285 285 288 290 291 292 293 293 294 293 293 291 291 293 297 300 302 303 306 308 311
241 252 259 261 260 260 260 260 263 266 270 275 278 280 281 282 282 281 282 282 283 285 287 291 292 292 292 291 291 290 288 288 288 292 298 301 303 305 308 312 317 321
247 254 259 260 260 260 260 262 264 267 271 275 277 278 279 279 279 278 280 283 285 289 291 292 291 289 289 288 286 285 284 287 292 299 304 305 309 313 317 322 325 326
246 251 256 260 261 263 264 265 267 270 275 278 279 280 279 278 278 279 283 287 288 289 289 288 287 285 283 282 282 284 287 292 299 307 311 314 320 325 327 328 328 327
237 245 255 265 266 266 267 268 271 275 279 281 280 278 277 279 281 284 286 287 286 285 284 283 281 278 278 279 283 288 293 300 310 319 322 326 331 331 330 329 328 327
228 243 265 283 284 279 274 272 274 276 278 279 277 276 277 280 284 284 284 283 281 280 279 276 274 274 278 283 289 295 302 313 325 329 330 332 333 330 328 328 328 328
235 250 268 286 291 287 279 273 272 273 274 274 272 275 280 284 283 281 278 277 275 273 271 270 272 277 284 290 298 305 316 328 333 331 331 331 330 328 329 329 330 330
247 257 270 284 290 286 276 269 268 269 271 273 274 278 282 281 277 275 274 271 268 265 264 269 278 285 292 299 308 318 328 334 332 328 329 330 330 331 333 333 333 333
252 262 275 287 291 282 270 265 265 266 272 276 280 281 277 274 272 271 268 262 258 259 268 280 288 294 302 309 318 328 332 333 329 327 329 332 333 336 337 337 338 337
257 269 283 293 291 277 266 264 263 266 274 278 279 275 270 271 269 263 256 251 259 275 284 290 295 301 309 318 328 332 331 330 328 328 332 335 337 339 340 341 341 339
268 280 292 296 286 271 262 262 265 267 268 270 273 271 267 266 257 247 249 264 281 288 289 292 299 307 317 326 331 330 329 330 329 331 335 338 340 341 342 342 342 341
279 287 292 288 273 260 256 260 266 267 264 267 270 266 261 253 243 249 270 281 284 284 285 293 304 314 324 329 329 328 328 330 333 335 337 339 341 341 343 344 344 344
280 281 280 271 257 251 255 263 268 265 264 268 267 258 248 242 250 269 278 277 273 274 286 301 314 323 328 329 327 326 327 332 336 337 337 339 341 341 344 346 345 345
270 268 263 255 249 249 256 263 265 260 262 267 257 243 241 250 264 271 265 257 259 276 298 313 321 326 328 326 325 325 329 334 337 337 338 340 341 343 345 346 346 345
254 251 248 245 245 250 257 262 258 252 256 252 237 237 249 258 260 249 236 246 269 293 312 320 323 326 325 323 324 326 331 337 338 339 341 343 343 345 347 346 346 346
241 239 239 240 243 252 260 259 249 240 237 233 233 244 252 245 229 219 230 259 285 305 315 320 322 322 323 324 326 328 333 338 340 341 344 345 345 347 348 347 347 348
236 234 233 235 241 253 258 249 237 228 227 231 238 240 230 214 208 217 240 266 290 308 315 320 321 323 325 326 327 330 336 340 343 344 346 346 347 348 348 347 348 348
234 229 227 232 241 250 249 238 228 224 227 232 230 217 205 204 210 222 244 274 298 312 319 321 323 325 326 327 328 333 338 342 345 347 347 346 347 349 348 347 349 349
229 226 226 233 242 245 239 231 227 226 224 220 213 205 201 204 213 227 255 286 304 316 320 321 323 326 326 328 332 336 340 343 346 349 348 348 350 350 348 348 350 349
226 225 229 237 242 239 232 227 227 224 213 205 204 204 203 204 217 239 267 293 310 318 319 320 323 326 328 331 336 340 342 343 347 349 350 351 353 351 349 350 351 351
224 224 232 239 238 233 228 225 222 214 203 200 202 203 202 207 223 244 272 297 311 315 316 320 325 327 330 335 340 343 344 345 348 349 350 354 355 352 351 353 354 355
222 225 234 237 232 229 225 219 212 206 201 201 201 201 203 210 225 248 276 296 305 310 315 322 327 328 332 340 343 344 347 348 349 349 352 356 355 353 355 358 358 359
220 226 232 231 227 224 219 212 204 201 200 199 197 200 206 213 227 253 275 291 299 307 317 323 324 326 334 343 345 347 351 351 351 354 357 357 356 356 359 1 1 3